Beckley, WV

2:59 PM EDT on June 25, 2017 (GMT -0400)
Raleigh County Memorial

Weather History for KBKW - July, 2014

Change the Weather History Date:

Sunday, July 13, 2014

  Actual Average Record
Temperature  
Mean Temperature 77 °F 71 °F  
Max Temperature 86 °F 80 °F 90 °F (1954)
Min Temperature 68 °F 62 °F 46 °F (1953)
Degree Days  
Heating Degree Days 0 0  
Month to date heating degree days 3 0  
Since 1 June heating degree days 15 39  
Since 1 July heating degree days 3 0  
Cooling Degree Days 12 6  
Month to date cooling degree days 87 78  
Year to date cooling degree days 333 230  
Since 1 June cooling degree days 258 189  
Growing Degree Days 27 (Base 50)    
Moisture  
Dew Point 63 °F    
Average Humidity 63    
Maximum Humidity 78    
Minimum Humidity 48    
Precipitation  
Precipitation 0.00 in 0.17 in 1.63 in (1949)
Month to date precipitation 0.54 2.01  
Year to date precipitation 18.52 23.17  
Snow  
Snow 0.00 in - - ()
Month to date snowfall 0.0  
Since 1 September snowfall 76.3  
Snow Depth 0.00 in    
Sea Level Pressure  
Sea Level Pressure 30.03 in    
Wind  
Wind Speed 8 mph (SW)    
Max Wind Speed 16 mph    
Max Gust Speed 26 mph    
Visibility 10 miles    
Events      
T = Trace of Precipitation, MM = Missing Value Source: NWS Daily Summary

Daily Weather History Graph

Daily Weather History Graph

Search for Another Location

Airport or City:

Trip Planner

Search our weather history database for the weather conditions in past years. The results will help you decide how hot, cold, wet, or windy it might be!

Date:

Astronomy

Jul. 13, 2014 Rise Set
Actual Time 6:13 AM EDT 8:47 PM EDT
Civil Twilight 5:42 AM EDT 9:17 PM EDT
Nautical Twilight 5:04 AM EDT 9:55 PM EDT
Astronomical Twilight 4:22 AM EDT 10:37 PM EDT
Moon 9:37 PM EDT (7/13) 7:39 AM EDT (7/13)
Length of Visible Light 15h 35m
Length of Day
14h 33m
Full, 98% of the Moon is Illuminated
Jul 13
Full
Jul 18
Last Quarter
Jul 26
New
Aug 3
First Quarter
Aug 10
Full

Hourly Weather History & Observations

Time (EDT) Temp. Heat Index Dew Point Humidity Pressure Visibility Wind Dir Wind Speed Gust Speed Precip Events Conditions
12:51 AM 69.1 °F - 59.0 °F 70% 30.09 in 10.0 mi SSE 5.8 mph - N/A   Clear
1:51 AM 71.1 °F - 59.0 °F 66% 30.07 in 10.0 mi Calm Calm - N/A   Mostly Cloudy
2:51 AM 70.0 °F - 61.0 °F 73% 30.06 in 10.0 mi SSW 4.6 mph - N/A   Mostly Cloudy
3:51 AM 72.0 °F - 62.1 °F 71% 30.06 in 10.0 mi SSW 8.1 mph - N/A   Overcast
4:51 AM 71.1 °F - 63.0 °F 75% 30.04 in 10.0 mi SSW 8.1 mph - N/A   Mostly Cloudy
5:51 AM 70.0 °F - 63.0 °F 78% 30.05 in 10.0 mi SSW 3.5 mph - N/A   Mostly Cloudy
6:51 AM 70.0 °F - 63.0 °F 78% 30.07 in 10.0 mi SSW 3.5 mph - N/A   Scattered Clouds
7:51 AM 73.0 °F - 64.0 °F 73% 30.08 in 10.0 mi SW 3.5 mph - N/A   Scattered Clouds
8:51 AM 73.0 °F - 64.9 °F 76% 30.10 in 10.0 mi SW 5.8 mph - N/A   Clear
9:51 AM 77.0 °F - 64.9 °F 66% 30.09 in 10.0 mi WSW 10.4 mph - N/A   Scattered Clouds
10:51 AM 80.1 °F 82.1 °F 66.0 °F 62% 30.07 in 10.0 mi WSW 8.1 mph - N/A   Scattered Clouds
11:51 AM 82.0 °F 83.1 °F 63.0 °F 52% 30.06 in 10.0 mi WSW 9.2 mph - N/A   Scattered Clouds
1:51 PM 81.0 °F 82.5 °F 64.0 °F 56% 30.04 in 10.0 mi WSW 9.2 mph - N/A   Overcast
2:51 PM 84.2 °F 85.6 °F 64.4 °F 51% 30.13 in 10.0 mi WSW 11.5 mph - N/A   Partly Cloudy
3:51 PM 82.9 °F 84.0 °F 63.0 °F 51% 29.99 in 10.0 mi SW 11.5 mph - N/A   Scattered Clouds
4:51 PM 84.0 °F 84.9 °F 63.0 °F 49% 29.96 in 10.0 mi WSW 10.4 mph - N/A   Clear
5:51 PM 84.0 °F 84.5 °F 62.1 °F 47% 29.97 in 10.0 mi SW 12.7 mph 21.9 mph N/A   Partly Cloudy
6:51 PM 82.0 °F 83.4 °F 64.0 °F 54% 29.97 in 10.0 mi SW 12.7 mph - N/A   Clear
7:51 PM 80.1 °F 81.7 °F 64.0 °F 58% 29.96 in 10.0 mi SSW 12.7 mph - N/A   Mostly Cloudy
8:51 PM 77.0 °F - 64.0 °F 64% 29.98 in 10.0 mi SW 8.1 mph - N/A   Scattered Clouds
9:51 PM 73.9 °F - 64.0 °F 71% 29.95 in 10.0 mi SSW 6.9 mph - N/A   Clear
10:51 PM 73.9 °F - 64.0 °F 71% 29.97 in 10.0 mi SSW 6.9 mph - N/A   Clear
11:51 PM 73.0 °F - 64.0 °F 73% 29.96 in 10.0 mi SW 5.8 mph - N/A   Clear